GW4906 Weather Reports


time (UTC)temp
F
wind
direction
speed
knots
gust
knots
rain 1hr
in
rain 24hr
in
rain mn
in
humidity
%
barometer
mb
20260906231544 63 205 2.6 5.2 0.00 0.00 0.00 78 1017.5
20260906231017 62 255 1.7 8.7 0.00 0.00 0.00 81 1017.4
20260906230519 61 237 4.3 8.7 0.00 0.00 0.00 81 1017.4
20260906230057 60 269 2.6 6.1 0.00 0.00 0.00 83 1017.5
20260906225519 61 205 3.5 6.1 0.00 0.00 0.00 81 1017.5
20260906225020 60 278 1.7 6.1 0.00 0.00 0.00 84 1017.4
20260906224539 59 283 1.7 7.8 0.00 0.00 0.00 85 1017.5
20260906224019 59 288 4.3 7.8 0.00 0.00 0.00 85 1017.6
20260906223517 58 243 3.5 7.0 0.00 0.00 0.00 84 1017.5
20260906223053 58 283 4.3 7.0 0.00 0.00 0.00 85 1017.6
20260906222518 58 269 3.5 9.6 0.00 0.00 0.00 85 1017.4
20260906222018 58 266 5.2 9.6 0.00 0.00 0.00 87 1017.5
20260906221543 58 273 4.3 7.8 0.00 0.00 0.00 88 1017.5
20260906221023 57 267 6.1 7.8 0.00 0.00 0.00 87 1017.6
20260906220518 57 291 5.2 7.8 0.00 0.00 0.00 87 1017.6
20260906220041 57 277 5.2 7.8 0.00 0.00 0.00 89 1017.7
20260906215519 56 269 1.7 6.1 0.00 0.00 0.00 90 1017.7
20260906215017 56 279 2.6 7.8 0.00 0.00 0.00 91 1017.7
20260906214559 56 264 1.7 7.0 0.00 0.00 0.00 91 1017.7
20260906214018 56 281 3.5 7.8 0.00 0.00 0.00 92 1017.7
20260906213519 55 284 5.2 7.8 0.00 0.00 0.00 92 1017.6
20260906213043 55 276 3.5 7.0 0.00 0.00 0.00 92 1017.7
20260906212515 55 284 3.5 8.7 0.00 0.00 0.00 92 1017.8
20260906212018 55 270 7.0 8.7 0.00 0.00 0.00 91 1017.8
20260906211552 55 272 5.2 7.8 0.00 0.00 0.00 92 1017.8
20260906211019 55 271 4.3 7.8 0.00 0.00 0.00 91 1017.8
20260906210520 55 288 4.3 8.7 0.00 0.00 0.00 92 1017.8
20260906210049 55 271 5.2 8.7 0.00 0.00 0.00 90 1017.8
20260906205517 55 286 4.3 8.7 0.00 0.00 0.00 91 1017.9
20260906205017 56 277 4.3 7.8 0.00 0.00 0.00 90 1017.9
20260906204548 56 264 5.2 7.8 0.00 0.00 0.00 91 1017.8
20260906204018 56 279 3.5 7.8 0.00 0.00 0.00 91 1017.8
20260906203518 56 268 5.2 7.8 0.00 0.00 0.00 90 1017.7
20260906203053 56 263 3.5 7.8 0.00 0.00 0.00 90 1017.8
20260906202519 56 272 3.5 7.8 0.00 0.00 0.00 90 1017.7
20260906202018 56 286 2.6 7.0 0.00 0.00 0.00 91 1017.8
20260906201550 56 226 1.7 6.1 0.00 0.00 0.00 90 1017.8
20260906201021 56 195 0.9 7.0 0.00 0.00 0.00 90 1017.9
20260906200520 55 171 2.6 7.0 0.00 0.00 0.00 90 1017.9
20260906200048 56 175 2.6 6.1 0.00 0.00 0.00 90 1018.0
20260906195515 55 209 3.5 6.1 0.00 0.00 0.00 90 1018.1
20260906195016 56 188 3.5 7.0 0.00 0.00 0.00 91 1018.0
20260906194555 56 202 2.6 7.0 0.00 0.00 0.00 90 1018.1
20260906193518 56 203 1.7 5.2 0.00 0.00 0.00 91 1018.0
20260906193050 56 190 1.7 6.1 0.00 0.00 0.00 91 1018.0
20260906192519 55 196 3.5 6.1 0.00 0.00 0.00 89 1018.2
20260906192019 56 198 1.7 5.2 0.00 0.00 0.00 91 1018.1
20260906191605 56 192 0.9 5.2 0.00 0.00 0.00 91 1018.1
20260906191020 56 192 2.6 5.2 0.00 0.00 0.00 89 1018.1
20260906190518 56 217 1.7 5.2 0.00 0.00 0.00 90 1018.2
20260906190059 56 186 1.7 5.2 0.00 0.00 0.00 90 1018.2
20260906185517 56 211 1.7 4.3 0.00 0.00 0.00 90 1018.2
20260906185019 55 216 1.7 4.3 0.00 0.00 0.00 91 1018.2
20260906184601 55 216 1.7 4.3 0.00 0.00 0.00 91 1018.2
20260906183517 55 200 2.6 5.2 0.00 0.00 0.00 91 1018.0
20260906183102 55 177 2.6 5.2 0.00 0.00 0.00 91 1018.2
20260906182519 55 190 2.6 7.8 0.00 0.00 0.00 91 1018.2
20260906182020 55 195 4.3 7.8 0.00 0.00 0.00 90 1018.4
20260906181552 55 207 4.3 7.8 0.00 0.00 0.00 91 1018.3
20260906181021 55 198 4.3 7.8 0.00 0.00 0.00 91 1018.1
20260906180519 55 174 4.3 7.8 0.00 0.00 0.00 90 1018.2
20260906180108 55 170 3.5 7.0 0.00 0.00 0.00 91 1018.3
20260906175517 56 198 4.3 7.0 0.00 0.00 0.00 90 1018.3
20260906175017 56 159 2.6 5.2 0.00 0.00 0.00 93 1018.1
20260906174557 55 195 1.7 4.3 0.00 0.00 0.00 94 1018.3
20260906174017 55 162 2.6 5.2 0.00 0.00 0.00 95 1018.4
20260906173055 54 117 1.7 5.2 0.00 0.00 0.00 97 1018.3
20260906172019 53 143 0.0 3.5 0.00 0.00 0.00 97 1018.4
20260906171557 53 160 0.0 3.5 0.00 0.00 0.00 97 1018.3
20260906171018 53 160 0.0 1.7 0.00 0.00 0.00 98 1018.4
20260906170519 53 160 0.0 1.7 0.00 0.00 0.00 98 1018.4
20260906170057 53 160 0.0 1.7 0.00 0.00 0.00 98 1018.3
20260906165519 53 159 0.0 1.7 0.00 0.00 0.00 98 1018.3
20260906165017 52 160 0.0 4.3 0.00 0.00 0.00 98 1018.3
20260906164600 52 160 1.7 4.3 0.00 0.00 0.00 98 1018.4
20260906163116 52 169 3.5 5.2 0.00 0.00 0.00 98 1018.3
20260906162018 52 144 1.7 6.1 0.00 0.00 0.00 98 1018.4
20260906161605 52 148 2.6 6.1 0.00 0.00 0.00 98 1018.3
20260906161019 52 146 0.9 5.2 0.00 0.00 0.00 98 1018.3
20260906160517 52 157 0.9 7.0 0.00 0.00 0.00 98 1018.2
20260906154552 52 125 3.5 9.6 0.00 0.00 0.00 98 1018.1
20260906153522 52 155 2.6 7.0 0.00 0.00 0.00 98 1018.0
20260906153053 52 154 2.6 8.7 0.00 0.00 0.00 98 1018.0
20260906152523 51 151 4.3 8.7 0.00 0.00 0.00 98 1017.9
20260906152017 51 180 5.2 8.7 0.00 0.00 0.00 98 1017.8
20260906151609 51 153 3.5 7.8 0.00 0.00 0.00 98 1017.8
20260906151017 51 203 3.5 7.8 0.00 0.00 0.00 98 1017.9
20260906150518 51 169 3.5 7.8 0.00 0.00 0.00 98 1017.9
20260906150057 51 155 4.3 8.7 0.00 0.00 0.00 98 1017.7
20260906145018 51 155 1.7 7.0 0.00 0.00 0.00 98 1018.0
20260906144555 51 175 2.6 7.0 0.00 0.00 0.00 98 1018.0
20260906143055 51 171 0.9 4.3 0.00 0.00 0.00 98 1018.0
20260906142517 51 171 2.6 4.3 0.00 0.00 0.00 98 1017.8
20260906142021 51 163 0.9 6.1 0.00 0.00 0.00 98 1017.7
20260906141604 51 196 1.7 8.7 0.00 0.00 0.00 97 1017.7
20260906141023 51 186 5.2 8.7 0.00 0.00 0.00 97 1017.7
20260906140524 51 182 2.6 6.1 0.00 0.00 0.00 97 1017.7
20260906140106 51 183 4.3 6.1 0.00 0.00 0.00 97 1017.7
20260906135518 51 156 3.5 6.1 0.00 0.00 0.00 97 1017.6
20260906135017 51 150 3.5 6.1 0.00 0.00 0.00 97 1017.6
20260906134554 51 149 2.6 6.1 0.00 0.00 0.00 97 1017.7
20260906134019 51 120 0.0 2.6 0.00 0.00 0.00 97 1017.8
20260906133119 51 112 0.0 3.5 0.00 0.00 0.00 97 1017.8
20260906132518 51 119 1.7 3.5 0.00 0.00 0.00 97 1017.7
20260906132020 51 119 0.9 1.7 0.00 0.00 0.00 97 1017.7
20260906131615 51 119 0.9 2.6 0.00 0.00 0.00 97 1017.6
20260906131020 52 119 0.9 2.6 0.00 0.00 0.00 97 1017.6
20260906130518 52 80 0.9 2.6 0.00 0.00 0.00 97 1017.7
20260906130112 52 74 0.0 1.7 0.00 0.00 0.00 98 1017.8
20260906125520 52 67 0.0 0.9 0.00 0.00 0.00 98 1017.7
20260906125019 52 67 0.0 0.9 0.00 0.00 0.00 97 1017.7
20260906124556 52 65 0.0 0.0 0.00 0.00 0.00 97 1017.7
20260906124017 52 65 0.0 0.0 0.00 0.00 0.00 97 1017.7
20260906123518 52 65 0.0 0.9 0.00 0.00 0.00 97 1017.7
20260906123102 52 65 0.0 1.7 0.00 0.00 0.00 97 1017.6
20260906122019 52 74 0.9 3.5 0.00 0.00 0.00 97 1017.6
20260906121559 52 68 0.0 2.6 0.00 0.00 0.00 97 1017.6
20260906120518 52 82 0.0 5.2 0.00 0.00 0.00 97 1017.5
20260906120101 52 82 0.9 5.2 0.00 0.00 0.00 97 1017.3
20260906115520 52 86 2.6 5.2 0.00 0.00 0.00 97 1017.2
20260906115019 52 113 2.6 4.3 0.00 0.00 0.00 97 1017.2
20260906114554 52 127 1.7 3.5 0.00 0.00 0.00 97 1017.2
20260906113052 51 130 1.7 5.2 0.00 0.00 0.00 97 1017.2
20260906112019 51 141 2.6 4.3 0.00 0.00 0.00 97 1017.2
20260906111551 51 147 1.7 3.5 0.00 0.00 0.00 96 1017.1
20260906111019 52 147 1.7 4.3 0.00 0.00 0.00 96 1017.1
20260906110517 52 136 3.5 4.3 0.00 0.00 0.00 96 1017.0
20260906110056 52 120 2.6 5.2 0.00 0.00 0.00 96 1017.0
20260906105516 51 112 2.6 7.0 0.00 0.00 0.00 96 1017.0
20260906104555 51 101 5.2 7.0 0.00 0.00 0.00 95 1016.9
20260906103053 52 83 3.5 7.0 0.00 0.00 0.00 93 1017.0
20260906102520 53 100 5.2 7.0 0.00 0.00 0.00 94 1017.1
20260906101556 53 98 6.1 7.0 0.00 0.00 0.00 92 1016.9
20260906101019 53 93 6.1 7.0 0.00 0.00 0.00 92 1016.8
20260906100523 54 86 2.6 7.8 0.00 0.00 0.00 92 1016.9
20260906100106 54 53 2.6 7.8 0.00 0.00 0.00 92 1017.1
20260906095520 54 23 4.3 7.8 0.00 0.00 0.00 91 1017.1
20260906094557 55 15 1.7 3.5 0.00 0.00 0.00 84 1017.1
20260906093057 56 77 0.9 7.0 0.00 0.00 0.00 82 1017.0
20260906092523 56 113 3.5 8.7 0.00 0.00 0.00 83 1016.8
20260906092019 56 111 6.1 8.7 0.00 0.00 0.00 83 1016.7
20260906091606 56 116 5.2 7.8 0.00 0.00 0.00 83 1016.6
20260906090125 57 125 4.3 7.0 0.00 0.00 0.00 80 1016.8
20260906085020 58 130 3.5 4.3 0.00 0.00 0.00 77 1016.7
20260906084559 58 124 2.6 3.5 0.00 0.00 0.00 76 1016.8
20260906083519 58 128 0.0 0.0 0.00 0.00 0.00 75 1016.8
20260906083100 59 26 0.0 0.0 0.00 0.00 0.00 74 1016.7
20260906082520 59 26 0.0 0.0 0.00 0.00 0.00 71 1016.7
20260906081601 60 26 0.0 0.9 0.00 0.00 0.00 71 1016.7
20260906075520 61 26 0.9 3.5 0.00 0.00 0.00 66 1016.7
20260906075019 61 26 0.9 3.5 0.00 0.00 0.00 66 1016.7
20260906074622 61 34 0.9 2.6 0.00 0.00 0.00 66 1016.6
20260906073103 61 32 0.9 3.5 0.00 0.00 0.00 64 1016.5
20260906071602 61 51 0.0 1.7 0.00 0.00 0.00 66 1016.5
20260906070126 61 325 0.0 0.0 0.00 0.00 0.00 64 1016.5
20260906064618 61 325 0.0 0.0 0.00 0.00 0.00 63 1016.5
20260906063103 62 325 0.0 0.0 0.00 0.00 0.00 58 1016.5
20260906061602 61 325 0.0 0.0 0.00 0.00 0.00 59 1016.4
20260906061019 62 325 0.0 0.9 0.00 0.00 0.00 58 1016.4
20260906060521 62 325 0.0 1.7 0.00 0.00 0.00 58 1016.4
20260906060129 62 325 0.9 2.6 0.00 0.00 0.00 58 1016.4
20260906054621 62 325 1.7 2.6 0.00 0.00 0.00 56 1016.6
20260906053106 63 51 0.0 0.0 0.00 0.00 0.00 58 1016.5
20260906051620 64 51 0.0 0.0 0.00 0.00 0.00 56 1016.2
20260906051019 64 51 0.0 0.0 0.00 0.00 0.00 58 1016.4
20260906050519 65 51 0.0 0.0 0.00 0.00 0.00 59 1016.3
20260906050104 65 51 0.0 0.0 0.00 0.00 0.00 53 1016.3
20260906044535 65 51 0.0 0.0 0.00 0.00 0.00 53 1016.3
20260906044019 64 51 0.0 1.7 0.00 0.00 0.00 54 1016.3
20260906043516 64 51 0.0 2.6 0.00 0.00 0.00 55 1016.3
20260906043038 64 51 0.0 2.6 0.00 0.00 0.00 56 1016.5
20260906042520 64 49 0.0 1.7 0.00 0.00 0.00 56 1016.5
20260906042019 64 50 0.0 4.3 0.00 0.00 0.00 58 1016.5
20260906041545 64 50 0.0 4.3 0.00 0.00 0.00 58 1016.5
20260906041019 64 49 0.9 3.5 0.00 0.00 0.00 59 1016.5
20260906040518 64 44 0.9 4.3 0.00 0.00 0.00 61 1016.6
20260906040046 64 24 1.7 4.3 0.00 0.00 0.00 59 1016.5
20260906035519 63 27 1.7 4.3 0.00 0.00 0.00 65 1016.7
20260906035018 63 51 0.9 4.3 0.00 0.00 0.00 67 1016.5
20260906034019 63 105 1.7 5.2 0.00 0.00 0.00 67 1016.6
20260906033519 63 183 0.0 0.0 0.00 0.00 0.00 67 1016.7
20260906033041 63 183 0.0 0.0 0.00 0.00 0.00 64 1016.6
20260906032517 63 183 0.0 0.0 0.00 0.00 0.00 59 1016.5
20260906032017 63 183 0.0 0.0 0.00 0.00 0.00 67 1016.5
20260906031541 64 183 0.0 0.0 0.00 0.00 0.00 65 1016.4
20260906031018 64 183 0.0 1.7 0.00 0.00 0.00 64 1016.3
20260906030518 64 183 0.0 2.6 0.00 0.00 0.00 64 1016.3
20260906030046 64 183 0.9 2.6 0.00 0.00 0.00 63 1016.4
20260906025518 65 183 0.9 3.5 0.00 0.00 0.00 63 1016.5
20260906025018 65 183 0.9 3.5 0.00 0.00 0.00 63 1016.4
20260906024541 66 183 1.7 3.5 0.00 0.00 0.00 62 1016.4
20260906024019 66 183 1.7 2.6 0.00 0.00 0.00 61 1016.2
20260906023520 67 183 1.7 3.5 0.00 0.00 0.00 60 1016.4
20260906023046 68 183 0.9 3.5 0.00 0.00 0.00 56 1016.3
20260906022517 67 183 0.9 2.6 0.00 0.00 0.00 53 1016.3
20260906022023 67 183 0.9 2.6 0.00 0.00 0.00 56 1016.4
20260906021539 67 183 1.7 3.5 0.00 0.00 0.00 60 1016.4
20260906021019 67 183 1.7 3.5 0.00 0.00 0.00 62 1016.4
20260906020518 67 183 1.7 4.3 0.00 0.00 0.00 63 1016.4
20260906020047 67 183 1.7 5.2 0.00 0.00 0.00 62 1016.4
20260906015517 67 186 3.5 4.3 0.00 0.00 0.00 61 1016.5
20260906014546 68 186 1.7 4.3 0.00 0.00 0.00 62 1016.6
20260906014018 68 186 2.6 4.3 0.00 0.00 0.00 61 1016.6
20260906013519 69 231 2.6 4.3 0.00 0.00 0.00 61 1016.5
20260906013044 69 265 1.7 3.5 0.00 0.00 0.00 61 1016.6
20260906012517 69 228 1.7 4.3 0.00 0.00 0.00 61 1016.6
20260906012019 69 205 2.6 4.3 0.00 0.00 0.00 60 1016.5
20260906011546 68 195 1.7 4.3 0.00 0.00 0.00 60 1016.6
20260906010517 70 219 1.7 4.3 0.00 0.00 0.00 57 1016.5
20260906010043 71 251 1.7 4.3 0.00 0.00 0.00 58 1016.5
20260906005519 71 181 1.7 4.3 0.00 0.00 0.00 59 1016.6
20260906005022 70 196 1.7 4.3 0.00 0.00 0.00 58 1016.4
20260906004549 69 178 2.6 4.3 0.00 0.00 0.00 59 1016.5
20260906004018 70 175 1.7 4.3 0.00 0.00 0.00 58 1016.5
20260906003518 71 201 1.7 3.5 0.00 0.00 0.00 56 1016.5
20260906003046 72 246 0.9 2.6 0.00 0.00 0.00 58 1016.6
20260906002516 72 246 0.0 4.3 0.00 0.00 0.00 59 1016.7
20260906002020 71 225 0.9 4.3 0.00 0.00 0.00 58 1016.8
20260906001543 72 233 1.7 4.3 0.00 0.00 0.00 59 1016.7
20260906001018 72 259 1.7 4.3 0.00 0.00 0.00 55 1016.8
20260906000523 73 279 2.6 4.3 0.00 0.00 0.00 56 1016.7
20260906000042 73 292 1.7 4.3 0.00 0.00 0.00 53 1016.9
20260905235519 74 292 1.7 4.3 0.00 0.00 0.00 55 1016.8
20260905235019 74 295 1.7 3.5 0.00 0.00 0.00 58 1016.9
20260905234547 74 237 0.9 3.5 0.00 0.00 0.00 54 1016.8
20260905234019 75 237 1.7 5.2 0.00 0.00 0.00 53 1017.0
20260905233516 75 207 2.6 5.2 0.00 0.00 0.00 49 1017.0
20260905233102 76 245 1.7 5.2 0.00 0.00 0.00 46 1017.1
20260905232517 76 267 2.6 5.2 0.00 0.00 0.00 47 1017.2